Regional Weather Roundup
Issued by NWS

Home | Current Version | Previous Version | Text Only | Print | Product List | Glossary Off
Versions: 1 2 3 4 5 6 7 8 9 10 11 12 13 14 15 16 17 18 19 20 21 22 23 24 25 26 27 28 29 30 31 32 33 34 35 36 37 38 39 40 41 42 43 44 45 46 47 48 49 50

000
ASUS45 KBOU 252007
RWRCO

WEATHER ROUNDUP FOR COLORADO
NATIONAL WEATHER SERVICE DENVER/BOULDER CO
100 PM MST TUE NOV 25 2014

NOTE: "FAIR" INDICATES FEW OR NO CLOUDS BELOW 12000 FEET WITH NO
SIGNIFICANT WEATHER AND/OR OBSTRUCTIONS TO VISIBILITY.

COZ001>005-013-030-031-252100-
...NORTHWEST COLORADO...

CITY           SKY/WX    TMP DP  RH WIND       PRES   REMARKS
CRAIG          CLOUDY    27  19  72 E7        30.18F WCI  19
HAYDEN         CLOUDY    21  18  86 E9        30.18F WCI  11
MEEKER         CLOUDY    30  16  56 S13       30.24F WCI  20
MOUNT WERNER   NOT AVBL
STEAMBOAT SPGS CLOUDY    19  17  92 CALM      30.19F VSB 1/2
WALDEN         CLOUDY    23  16  74 SW16G22   30.05F WCI  10
$$

COZ006>008-011-252100-
...WEST CENTRAL VALLEYS...

CITY           SKY/WX    TMP DP  RH WIND       PRES   REMARKS
GRAND JUNCTION CLOUDY    35  15  44 E5        30.33F WCI  31
MONTROSE       CLOUDY    31  13  47 CALM      30.34F
EAGLE          FLURRIES  28  21  74 W10       30.27S WCI  19
RIFLE          CLOUDY    24  18  77 S3        30.33F
DELTA          CLOUDY    38  20  48 E6        30.35F
NUCLA          CLOUDY    37   5  25 E5        30.37F
$$

COZ017>023-064>068-252100-
...SOUTHWEST COLORADO...

CITY           SKY/WX    TMP DP  RH WIND       PRES   REMARKS
DURANGO        MOSUNNY   42   6  22 SW7       30.26F
CORTEZ         SUNNY     42   8  24 W9        30.35F
PAGOSA SPRINGS SUNNY     32   4  30 CALM      30.27F
TELLURIDE      CLOUDY    26  13  57 E9        30.35F WCI  16
WOLF CREEK PAS SUNNY     27  12  54 MISG      30.22F
$$

COZ009-010-012-014-032>034-037-058>063-252100-
...CENTRAL COLORADO...

CITY           SKY/WX    TMP DP  RH WIND       PRES   REMARKS
ASPEN          LGT SNOW  22  18  85 CALM      30.23F FOG
BUENA VISTA    PTSUNNY   33  12  41 NW32G45   30.05F WCI  19
COPPER MTN     CLOUDY    14   9  79 W21G28    30.10R WCI  -4
BERTHOUD PASS  NOT AVBL
COTTONWOOD PAS CLOUDY    27  14  59 NW28G45   30.00F HAZE    WCI  11
GUNNISON       CLOUDY    19  10  68 CALM      30.33S
KREMMLING      LGT SNOW  25  19  80 W8        30.17S VSB 3/4 WCI  16
LEADVILLE      SNOW      17  12  80 N18G25    30.14F VSB 1/2 WCI   1
SALIDA         PTSUNNY   39  11  32 W32G49    30.14S
SUNLIGHT       CLOUDY   N/A N/A N/A SW3       30.20S FOG
WILKERSON PASS PTSUNNY   25  10  54 NW22      29.98R WCI  10
$$

COZ069>075-252100-
...SAN LUIS VALLEY/SANGRE DE CRISTO MOUNTAINS...

CITY           SKY/WX    TMP DP  RH WIND       PRES   REMARKS
ALAMOSA        MOSUNNY   31   1  28 S6        30.21F WCI  25
LA VETA PASS   NOT AVBL
SAGUACHE       NOT AVBL
$$

COZ035-036-038>040-252100-
...NORTHERN COLORADO FRONT RANGE...

CITY           SKY/WX    TMP DP  RH WIND       PRES   REMARKS
DENVER INTL AP CLOUDY    48  14  25 W20       29.86F
DMNS CITY PARK   N/A     45  14  28 W18G37    29.89F
AURORA         PTSUNNY   46  15  28 W29       29.89F
FRONT RANGE AP NOT AVBL
ERIE MUNI ARPT PTSUNNY   47  12  24 W17       29.87F
BOULDER MUN AP PTSUNNY   46  14  27 NW21G40   29.87S
CENTENNIAL     CLOUDY    45  18  34 W15G22    29.89F
BROOMFIELD     PTSUNNY   41  14  33 W32G44    29.90F
FORT COLLINS   PTSUNNY   45  21  39 SE5       29.86F
LONGMONT       PTSUNNY   50  15  25 NW3       29.87F
$$

COZ041-046-047-076>085-087-088-252100-
...PIKES PEAK/PALMER DIVIDE AND SOUTHERN FOOTHILLS...

CITY           SKY/WX    TMP DP  RH WIND       PRES   REMARKS
COLO. SPRINGS  CLOUDY    46  14  27 NW28G37   29.93F
A. F. ACADEMY  CLOUDY    42  13  30 W14G21    29.92F
ELLICOTT       NOT AVBL
FALCON         NOT AVBL
FORT CARSON    CLOUDY    42  14  32 SE9       29.92F
LIMON          CLOUDY    45  12  26 W21G29    29.90F
MONUMENT HILL  CLOUDY    41  14  33 NW10G16   29.92S
TRINIDAD       MOSUNNY   47  15  27 NW9       29.99F
$$

COZ042>045-048>051-090-091-252100-
...NORTHEAST COLORADO...

CITY           SKY/WX    TMP DP  RH WIND       PRES   REMARKS
GREELEY ARPT   CLOUDY    39  19  45 W5        29.87F
AKRON          CLOUDY    47  11  23 W16       29.86F
BURLINGTON     CLOUDY    45   7  21 SW15      29.90F
WRAY           CLOUDY    50  15  24 W14       29.87F
STERLING       CLOUDY    52  19  28 W13       29.85F
HOLYOKE        CLOUDY    48  18  29 W18       29.85F
FORT MORGAN    CLOUDY    47  11  23 SW7       29.87F
$$

COZ086-089-092>099-252100-
...SOUTHEAST COLORADO...

CITY           SKY/WX    TMP DP  RH WIND       PRES   REMARKS
PUEBLO         PTSUNNY   54  14  20 W25G33    29.90F
LA JUNTA       CLOUDY    50  13  22 W17       29.93F
LAMAR          PTSUNNY   51  13  21 W14       29.92F
SPRINGFIELD      N/A     50   9  19 W14G21    29.95F
$$


USA.gov is the U.S. government's official web portal to all federal, state and local government web resources and services.